Location: Newark
(26.0600°N, 83.1900°E)
Time: 04:21:31
(UTC+00:00)

OTV 5 (USA 277) - Visible Passes

Search period start: 21 August 2019 00:00
Search period end: 31 August 2019 00:00
Orbit: 305 x 329 km, 54.5° (Epoch: 20 August)

Date Brightness Start Highest point End Pass type
(mag) Time Alt. Az. Time Alt. Az. Time Alt. Az.
22 Aug ? 14:24:58 10° SW 14:27:35 47° NW 14:27:35 47° NW visible
22 Aug ? 22:26:51 10° NNE 22:28:04 12° NE 22:29:15 10° ENE visible
23 Aug ? 14:40:45 10° W 14:42:13 14° NW 14:43:41 10° NNW visible
23 Aug ? 22:41:15 20° NNW 22:42:42 43° NE 22:45:13 10° SE visible
24 Aug ? 13:19:44 10° SSW 13:22:26 74° SE 13:25:08 10° NE visible
24 Aug ? 22:58:27 21° S 22:58:27 21° S 22:59:36 10° SSE visible
25 Aug ? 13:34:41 10° WSW 13:36:59 24° NW 13:39:16 10° N visible
